Weather in Evenes

Norway     68°27′33″N   16°41′20″E
temp.,
°C
wind,
m/s
gust,
m/s
humid.,
%
clouds,
%
prec.,
mm/h
press.,
hPa
HPBL,
m
13 may, thu
thu1323:00+4sw239898 0.0 1015114
02:00+4sw2297100 0.1 101556
05:00+4n1197100 0.0 101545
08:00+4n2496100 0.2 1016210
11:00+3n3597100 0.1 1017285
14:00+4n3592100 0.1 1018439
17:00+3n3593100 0.1 1018465
20:00+3n3595100 0.1 1018402
14 may, fri
fri1423:00+3n3694100 0.2 1019408
02:00+2nne4595100 0.4 1019313
05:00+2nne349191 0.0 1018296
08:00+3ne2479100 0.0 1017479
11:00+4ne2373100 0.0 1017377
14:00+5ne236799 0.0 1016342
17:00+5ene236397 0.0 1015382
20:00+5ene2369100 0.0 1015319
15 may, sat
sat1523:00+3ene2381100 0.2 1015201
02:00+2e2383100 0.3 1014172
05:00+2ene2379100 0.0 1013119
08:00+3ene237492 0.1 1013138
11:00+5ene2364100 0.0 1012311
14:00+6ene2363100 0.0 1012340
17:00+7ene226696 0.0 1011260
20:00+6ene227058 0.0 1010189
16 may, sun
sun1623:00+4e238162 0.0 101054
02:00+3e238441 0.0 101051
05:00+3e228363 0.0 101069
08:00+5ene237888 0.0 1009104
11:00+8e227266 0.0 1009178
14:00+12ese236229 0.0 1008448
17:00+12se346223 0.0 1007588
20:00+10se237427 0.0 1008145
17 may, mon
mon1723:00+7ese1283100 0.0 100925
02:00+7s1181100 0.0 101025
05:00+7ssw118469 0.0 101031
08:00+9ssw117344 0.0 1010233
11:00+12ese1159100 0.0 1010642
14:00+13e1153100 0.0 1010913
17:00+13ene125084 0.0 1009921
20:00+11ene116263 0.0 1009206